Fort Rucker / Ozark, AL

10:16 PM CDT on April 19, 2018 (GMT -0500)
Fort Rucker / Ozark

Weather History for KHEY - July, 2013

Change the Weather History Date:

Tuesday, July 16, 2013

  Actual Average (KOZR) Record (KOZR)
Temperature  
Mean Temperature 82 °F -  
Max Temperature 91 °F 88 °F 102 °F (2000)
Min Temperature 73 °F 69 °F 64 °F (2001)
Cooling Degree Days 17    
Growing Degree Days 32 (Base 50)    
Moisture  
Dew Point 72 °F    
Average Humidity 81    
Maximum Humidity 94    
Minimum Humidity 50    
Precipitation  
Precipitation 0.00 in - - ()
Sea Level Pressure  
Sea Level Pressure 30.01 in    
Wind  
Wind Speed 9 mph (ENE)    
Max Wind Speed 15 mph    
Max Gust Speed 21 mph    
Visibility 10 miles    
Events Rain , Thunderstorm    
Averages and records for this station are not official NWS values.
T = Trace of Precipitation, MM = Missing Value Source: NWS Daily Summary

Daily Weather History Graph

Daily Weather History Graph

Search for Another Location

Airport or City:

Astronomy

Jul. 16, 2013 Rise Set
Actual Time 5:49 AM CDT 7:47 PM CDT
Civil Twilight 5:22 AM CDT 8:14 PM CDT
Nautical Twilight 4:48 AM CDT 8:48 PM CDT
Astronomical Twilight 4:13 AM CDT 9:23 PM CDT
Moon 1:37 PM CDT (7/16) 12:07 AM CDT (7/16)
Length of Visible Light 14h 52m
Length of Day
13h 58m
First Quarter, 56% of the Moon is Illuminated
Jul 16
First Quarter
Jul 22
Full
Jul 29
Last Quarter
Aug 6
New
Aug 14
First Quarter

Hourly Weather History & Observations

Time (CDT) Temp. Heat Index Dew Point Humidity Pressure Visibility Wind Dir Wind Speed Gust Speed Precip Events Conditions
12:06 AM 75.2 °F - 71.6 °F 89% 30.18 in 10.0 mi NE 8.1 mph - N/A   Mostly Cloudy
12:25 AM 75.2 °F - 71.6 °F 89% 30.18 in 10.0 mi ENE 11.5 mph - N/A   Mostly Cloudy
12:44 AM 75.2 °F - 71.6 °F 89% 30.18 in 10.0 mi ENE 9.2 mph - N/A   Overcast
12:53 AM 73.9 °F - 72.0 °F 93% 29.85 in 10.0 mi ENE 9.2 mph - N/A   Mostly Cloudy
1:29 AM 73.4 °F - 71.6 °F 94% 30.18 in 10.0 mi ENE 6.9 mph - N/A   Scattered Clouds
1:53 AM 73.9 °F - 72.0 °F 93% 29.84 in 10.0 mi ENE 8.1 mph - N/A   Mostly Cloudy
2:53 AM 73.9 °F - 72.0 °F 93% 29.84 in 10.0 mi ENE 9.2 mph - N/A   Mostly Cloudy
3:53 AM 73.9 °F - 72.0 °F 93% 29.83 in 10.0 mi ENE 9.2 mph 17.3 mph N/A   Overcast
4:24 AM 73.4 °F - 71.6 °F 94% 30.16 in 10.0 mi ENE 8.1 mph - N/A   Overcast
4:53 AM 73.9 °F - 72.0 °F 93% 29.83 in 10.0 mi East 9.2 mph - N/A   Overcast
5:31 AM 73.4 °F - 71.6 °F 94% 30.17 in 10.0 mi ENE 6.9 mph - N/A   Overcast
5:46 AM 73.4 °F - 71.6 °F 94% 30.17 in 10.0 mi ENE 6.9 mph - N/A   Scattered Clouds
5:53 AM 73.9 °F - 72.0 °F 93% 29.84 in 10.0 mi ENE 6.9 mph - N/A   Partly Cloudy
6:13 AM 73.4 °F - 71.6 °F 94% 30.18 in 10.0 mi ENE 8.1 mph - N/A   Mostly Cloudy
6:53 AM 73.9 °F - 72.0 °F 93% 29.86 in 10.0 mi East 6.9 mph - N/A   Mostly Cloudy
7:36 AM 75.2 °F - 71.6 °F 89% 30.21 in 10.0 mi East 9.2 mph - N/A   Overcast
7:53 AM 75.0 °F - 72.0 °F 90% 29.88 in 10.0 mi East 9.2 mph - N/A   Overcast
8:08 AM 75.2 °F - 73.4 °F 94% 30.21 in 10.0 mi East 10.4 mph - N/A   Overcast
8:17 AM 75.2 °F - 73.4 °F 94% 30.21 in 10.0 mi East 10.4 mph - N/A   Overcast
8:53 AM 75.0 °F - 72.0 °F 90% 29.88 in 10.0 mi East 13.8 mph 20.7 mph N/A   Mostly Cloudy
9:06 AM 75.2 °F - 71.6 °F 89% 30.22 in 10.0 mi East 11.5 mph - N/A   Mostly Cloudy
9:45 AM 75.2 °F - 71.6 °F 89% 30.23 in 10.0 mi East 12.7 mph - N/A   Mostly Cloudy
9:53 AM 75.9 °F - 71.1 °F 85% 29.90 in 10.0 mi East 11.5 mph - N/A   Mostly Cloudy
10:36 AM 75.2 °F - 71.6 °F 89% 30.23 in 10.0 mi East 11.5 mph - N/A   Mostly Cloudy
10:53 AM 77.0 °F - 71.1 °F 82% 29.91 in 10.0 mi East 11.5 mph - N/A   Mostly Cloudy
11:53 AM 84.9 °F 89.4 °F 70.0 °F 61% 29.90 in 10.0 mi East 15.0 mph - N/A   Mostly Cloudy
12:53 PM 84.9 °F 89.4 °F 70.0 °F 61% 29.88 in 10.0 mi ENE 10.4 mph - N/A   Partly Cloudy
1:53 PM 86.0 °F 90.1 °F 69.1 °F 57% 29.88 in 10.0 mi East 11.5 mph - N/A   Mostly Cloudy
2:53 PM 90.0 °F 94.5 °F 69.1 °F 50% 29.86 in 10.0 mi East 11.5 mph - 0.00 in   Partly Cloudy
3:53 PM 91.0 °F 96.6 °F 70.0 °F 50% 29.83 in 10.0 mi East 10.4 mph - N/A   Scattered Clouds
4:53 PM 90.0 °F 94.5 °F 69.1 °F 50% 29.83 in 10.0 mi East 10.4 mph - N/A   Scattered Clouds
5:26 PM 87.8 °F 93.8 °F 71.6 °F 58% 30.18 in 10.0 mi East 9.2 mph - 0.00 in Thunderstorm Thunderstorm
5:45 PM 87.8 °F 93.8 °F 71.6 °F 58% 30.18 in 10.0 mi East 8.1 mph - 0.00 in   Scattered Clouds
5:53 PM 87.1 °F 93.6 °F 72.0 °F 61% 29.85 in 10.0 mi ENE 8.1 mph - 0.00 in   Partly Cloudy
6:53 PM 82.9 °F 88.0 °F 72.0 °F 69% 29.85 in 10.0 mi East 4.6 mph - N/A   Clear
7:53 PM 82.9 °F 87.5 °F 71.1 °F 67% 29.86 in 10.0 mi Calm Calm - N/A   Clear
8:53 PM 79.0 °F - 73.0 °F 82% 29.88 in 10.0 mi NNW 3.5 mph - N/A   Partly Cloudy
9:27 PM 78.8 °F - 73.4 °F 83% 30.22 in 10.0 mi Calm Calm - N/A Thunderstorm Thunderstorm
9:46 PM 78.8 °F - 73.4 °F 83% 30.22 in 10.0 mi Calm Calm - N/A   Overcast
9:53 PM 79.0 °F - 72.0 °F 79% 29.89 in 10.0 mi Calm Calm - 0.00 in Rain Light Rain
10:53 PM 79.0 °F - 73.0 °F 82% 29.89 in 10.0 mi NE 4.6 mph - 0.00 in   Clear
11:53 PM 79.0 °F - 73.0 °F 82% 29.90 in 10.0 mi NE 3.5 mph - N/A   Clear